Content
SEND FEEDBACK

Daily
Averages
Monthly
Summary
United States of America

RAPID CITY, SOUTH DAKOTA


Home > North America > United States > South Dakota
Elevation: 3162 feet     Latitude: 44 03N     Longitude: 103 04W

WEATHER
 
SELECT A DAY
Number of Records: 200,504;   Date Range: 1/1/95 - 9/16/14
 
SHARE

PRINT THIS DATA

[ ← Previous Day ]
WEATHER ALMANAC - JANUARY 19, 2013
[ Next Day → ]
[ °C ]   °F
Weather ElementAverageHighLow
Temperature33.9 °F43 °F (9:52 am)19.9 °F (10:52 pm)
Dewpoint19.6 °F23 °F (11:52 am)15.1 °F (11:52 pm)
Humidity58 %89 % (10:52 pm)40 % (1:52 am)
Barometer30.17 in30.31 in (6:52 pm)29.95 in (1:52 am)
Wind Speed14.6 mph27.6 mph (1:52 pm)
Wind Gust36.8 mph (1:52 pm)
Weather ElementAverage
Visibility10 mi
Wind DirectionWSW (249.6 °)

Weather ElementTotal
Precipitation---
Heating Degree Days33.6 (Base 65)
Averaged from 23 records on January 19, 2013
WEATHER CONDITIONS BREAKOUT
WIND DIRECTION BREAKOUT
WEATHER BY HOUR - JANUARY 19, 2013
[ °C ]   °F
Local TimeTemperatureDewpointHumidityBarometerVisibilityWind DirectionWind SpeedGust SpeedPrecipitationEventsConditions
1:52 AM41.0 °F18.0 °F40 %29.95 in10.0 miNW (310°)15.0 mphClear
2:52 AM30.0 °F17.1 °F59 %29.99 in10.0 miWNW (300°)9.2 mphClear
3:52 AM32.0 °F18.0 °F56 %30.00 in10.0 miWNW (290°)11.5 mphClear
4:52 AM34.0 °F18.0 °F52 %30.02 in10.0 miNW (320°)9.2 mph19.6 mphClear
5:52 AM33.1 °F18.0 °F54 %30.06 in10.0 miNW (320°)9.2 mphClear
6:52 AM35.1 °F18.0 °F50 %30.07 in10.0 miNW (320°)11.5 mphClear
7:52 AM39.0 °F19.0 °F45 %30.09 in10.0 miNNW (340°)16.1 mphClear
8:52 AM42.1 °F19.9 °F41 %30.12 in10.0 miNNW (340°)17.3 mphClear
9:52 AM43.0 °F21.0 °F42 %30.15 in10.0 miNorth (360°)18.4 mph26.5 mphClear
10:52 AM43.0 °F21.9 °F43 %30.19 in10.0 miNorth (360°)24.2 mph33.4 mphClear
11:52 AM43.0 °F23.0 °F45 %30.19 in10.0 miNNW (340°)23.0 mph27.6 mphClear
12:52 PM43.0 °F23.0 °F45 %30.20 in10.0 miNorth (350°)25.3 mph34.5 mphClear
1:52 PM42.8 °F23.0 °F46 %30.14 in10.0 miNorth (350°)27.6 mph36.8 mphClear
2:52 PM39.9 °F23.0 °F51 %30.25 in10.0 miNorth (10°)20.7 mph26.5 mphClear
3:52 PM37.0 °F21.9 °F54 %30.26 in10.0 miNorth (360°)23.0 mphClear
4:52 PM33.1 °F21.9 °F64 %30.28 in10.0 miNorth (10°)17.3 mphClear
5:52 PM30.0 °F19.9 °F66 %30.30 in10.0 miNorth (360°)11.5 mphClear
6:52 PM26.1 °F18.0 °F71 %30.31 in10.0 miNNE (30°)5.8 mphClear
7:52 PM26.1 °F19.9 °F78 %30.31 in10.0 miSE (130°)4.6 mphClear
8:52 PM23.0 °F19.0 °F85 %30.31 in10.0 miSSE (150°)5.8 mphClear
9:52 PM23.0 °F18.0 °F81 %30.27 in10.0 miSE (130°)9.2 mphPartly Cloudy
10:52 PM19.9 °F17.1 °F89 %30.24 in10.0 miSE (130°)9.2 mphClear
11:52 PM21.0 °F15.1 °F78 %30.21 in10.0 miSE (130°)11.5 mphClear
Hourly data recorded from KRAP, located miles away from Rapid City, South Dakota







STORIES FROM OUR PARTNERS